Home > Weather > Riverview > Past weeks

Flag for Canada Weather for the Past 2 Weeks in Riverview, New Brunswick, Canada

Now
18 °F

Low clouds.


Feels Like: 5 °F
Forecast: 13 / 29 °F
Wind: 12 mph from West

Location: Moncton

Current Time: Feb 10, 2016 at 3:32:18 AM

Latest Report: Feb 10, 2016 at 3:00 AM


Visibility: 15 mi

Pressure: 29.49 "Hg

Humidity: 93%

Dew point: 16 °F

Location of RiverviewLocation

Historic Weather in Riverview — Graph

°F

Riverview Temperature Yesterday

Maximum temperature yesterday: 27 °F (at 2:00 PM)
Minimum temperature yesterday: 23 °F (at 12:00 AM)
Average temperature yesterday: 24 °F

High & Low Weather Summary for the Past Weeks

 TemperatureHumidityPressure
High52 °F (Feb 1, 2:00 PM)100% (Jan 31, 8:00 AM)30.53 "Hg (Jan 31, 8:00 AM)
Low7 °F (Feb 8, 3:00 AM)31% (Jan 28, 1:00 PM)29.26 "Hg (Jan 29, 6:00 PM)
Average28 °F79%29.89 "Hg
* Reported Jan 26 2:00 AM — Feb 10 2:00 AM, Riverview, Weather by CustomWeather, © 2016

Note: Actual official high and low records may vary slightly from our data, if they occured in-between our weather recording intervals... More about our weather records

Advertising

Riverview Weather History for the Previous 24 Hours

 ConditionsComfort  
Time TempWeatherWind HumidityBarometerVisibility
2:00 AM
Wed, Feb 10
19 °FMostly cloudy.9 mph86%29.46 "Hg15 mi
1:00 AM19 °FMostly cloudy.13 mph93%29.46 "Hg15 mi
12:00 AM21 °FLight snow. Overcast.12 mph86%29.46 "Hg10 mi
11:00 PM
Tue, Feb 9
23 °FLight snow. Mostly cloudy.9 mph93%29.47 "Hg7 mi
10:00 PM23 °FLight snow. Overcast.6 mph93%29.50 "Hg4 mi
9:00 PM23 °FLight snow. Mostly cloudy.7 mph93%29.52 "Hg15 mi
8:00 PM23 °FLight snow. Low clouds.8 mph93%29.53 "Hg12 mi
7:00 PM23 °FLight snow. Mostly cloudy.12 mph93%29.55 "Hg15 mi
6:00 PM25 °FLight snow. Mostly cloudy.16 mph86%29.55 "Hg15 mi
5:00 PM25 °FLight snow. Partly sunny.14 mph86%29.57 "Hg12 mi
4:00 PM25 °FLight snow. Mostly cloudy.14 mph86%29.62 "Hg2 mi
3:00 PM25 °FLight snow. Mostly cloudy.10 mph86%29.62 "Hg2 mi
2:00 PM27 °FLight snow. Cloudy.8 mph80%29.60 "Hg1 mi
1:00 PM25 °FLight snow. Mostly cloudy.10 mph86%29.61 "Hg1 mi
12:00 PM25 °FLight snow. More clouds than sun.13 mph86%29.63 "Hg1 mi
11:00 AM25 °FLight snow. Overcast.15 mph86%29.64 "Hg1 mi
10:00 AM23 °FLight snow. Ice fog.20 mph93%29.62 "Hg1 mi
9:00 AM23 °FLight snow. Ice fog.20 mph93%29.63 "Hg1 mi
8:00 AM23 °FLight snow. Ice fog.21 mph93%29.62 "Hg1 mi
7:00 AM23 °FLight snow. Ice fog.21 mph93%29.62 "Hg1 mi
6:00 AM23 °FLight snow. Passing clouds.21 mph93%29.61 "Hg1 mi
5:00 AM23 °FLight snow. Ice fog.23 mph93%29.62 "Hg1 mi
4:00 AM23 °FLight snow. Ice fog.28 mph93%29.62 "Hg1 mi
3:00 AM23 °FCold.31 mph93%29.61 "Hg1 mi
Weather by CustomWeather, © 2016

See weather overviewHow to use our weather pages